Location: Unspecified
(51.0950°N, 12.9690°E)
Time: 21:18:51
(UTC+00:00)

USA 267 - Pass Details

Date: 28 October 2021
Orbit: 1101 x 1107 km, 123.0° (Epoch: 27 November)

Event Time Altitude Azimuth Distance (km) Brightness Sun altitude
Exits shadow 16:45:49 - 122° (ESE) 3,856 5.7 -9.4°
Reaches altitude 10° 16:48:09 10° 123° (ESE) 2,955 5.1 -9.8°
Maximum altitude 16:54:42 83° 211° (SSW) 1,115 3.4 -10.8°
Drops below altitude 10° 17:01:16 10° 300° (WNW) 2,965 6.4 -11.8°
Sets 17:03:46 0° 301° (WNW) 3,925 7.1 -12.2°
